Location: Alfortville
(48.8058°N, 2.4204°E)
Time: 21:45:03
(UTC+00:00)

SR - Pass Details

Date: 25 April 2026
Orbit: 568 x 852 km, 66.7° (Epoch: 19 May)

Event Time Altitude Azimuth Distance (km) Brightness Sun altitude
Rises 21:23:25 0° 317° (NW) 3,329 ? -20.0°
Reaches altitude 10° 21:26:03 10° 307° (NW) 2,426 ? -20.3°
Maximum altitude 21:30:54 30° 248° (WSW) 1,457 ? -20.8°
Enters shadow 21:33:50 20° 203° (SSW) 1,882 ? -21.0°
